FW6822 Weather Reports


Display with metric or nautical units.
time (UTC)temp
F
wind
direction
speed
MPH
gust
MPH
rain 1hr
in
rain 24hr
in
rain mn
in
humidity
%
barometer
mb
20260508011504 44 165 0.0 0.0 0.00 0.00 0.00 1 1011.7
20260508010059 45 164 0.0 0.0 0.00 0.00 0.00 1 1011.8
20260508004557 45 164 0.0 0.0 0.00 0.00 0.00 1 1011.9
20260508003050 45 164 0.0 0.0 0.00 0.00 0.00 1 1012.0
20260508001546 45 164 1.0 2.0 0.00 0.00 0.00 1 1012.1
20260508000041 46 164 0.0 2.0 0.00 0.00 0.00 1 1012.1
20260507234538 46 164 0.0 1.0 0.00 0.00 0.00 1 1012.1
20260507233034 46 164 0.0 0.0 0.00 0.00 0.00 1 1012.1
20260507231538 47 164 0.0 0.0 0.00 0.00 0.00 1 1012.1
20260507230024 47 164 0.0 1.0 0.00 0.00 0.00 1 1012.1
20260507224522 47 164 0.0 2.0 0.00 0.00 0.00 1 1011.9
20260507223016 48 186 0.0 1.0 0.00 0.00 0.00 1 1011.9
20260507221515 48 186 0.0 2.0 0.00 0.00 0.00 2 1012.0
20260507220007 49 186 1.0 3.0 0.00 0.00 0.00 6 1011.8
20260507214503 49 176 1.0 4.0 0.00 0.00 0.00 15 1011.8
20260507213103 49 174 3.0 5.0 0.00 0.00 0.00 19 1011.7
20260507211554 50 186 3.0 6.0 0.00 0.00 0.00 27 1011.7
20260507210052 51 159 3.0 5.0 0.00 0.00 0.00 30 1011.6
20260507204546 51 162 3.0 4.0 0.00 0.00 0.00 30 1011.5
20260507203048 51 176 2.0 5.0 0.00 0.00 0.00 36 1011.4
20260507201539 52 164 3.0 6.0 0.00 0.00 0.00 43 1011.1
20260507200044 52 171 3.0 10.0 0.00 0.00 0.00 47 1011.0
20260507194529 53 218 3.0 10.0 0.00 0.00 0.00 49 1011.0
20260507193024 53 158 6.0 10.0 0.00 0.00 0.00 51 1010.9
20260507191520 53 171 4.0 11.0 0.00 0.00 0.00 54 1010.8
20260507190016 53 208 4.0 11.0 0.00 0.00 0.00 56 1010.8
20260507184511 53 291 6.0 13.0 0.00 0.00 0.00 58 1010.7
20260507183022 54 208 9.0 16.0 0.00 0.00 0.00 58 1010.7
20260507181502 54 181 7.0 14.0 0.00 0.00 0.00 58 1010.6
20260507180057 54 198 6.0 15.0 0.00 0.00 0.00 58 1010.7
20260507174605 54 223 6.0 14.0 0.00 0.00 0.00 60 1010.6
20260507173057 54 195 8.0 18.0 0.00 0.00 0.00 61 1010.6
20260507171604 55 176 10.0 16.0 0.00 0.00 0.00 59 1010.6
20260507170040 55 179 8.0 18.0 0.00 0.00 0.00 59 1010.6
20260507164550 55 193 10.0 17.0 0.00 0.00 0.00 60 1010.5
20260507163031 55 184 8.0 17.0 0.00 0.00 0.00 61 1010.5
20260507161539 55 186 8.0 19.0 0.00 0.00 0.00 61 1010.6
20260507160032 56 228 9.0 18.0 0.00 0.00 0.00 61 1010.5
20260507154519 55 226 9.0 18.0 0.00 0.00 0.00 60 1010.5
20260507153015 56 186 12.0 20.0 0.00 0.00 0.00 60 1010.4
20260507151517 55 163 13.0 20.0 0.00 0.00 0.00 60 1010.3
20260507150006 55 191 14.0 21.0 0.00 0.00 0.00 60 1010.3
20260507144501 56 241 15.0 23.0 0.00 0.00 0.00 61 1010.4
20260507143104 56 151 14.0 21.0 0.00 0.00 0.00 60 1010.4
20260507141556 56 149 14.0 25.0 0.00 0.00 0.00 60 1010.4
20260507140048 56 176 13.0 21.0 0.00 0.00 0.00 60 1010.4
20260507134552 56 145 12.0 22.0 0.00 0.00 0.00 60 1010.5
20260507133039 56 129 11.0 19.0 0.00 0.00 0.00 60 1010.4
20260507131539 56 163 11.0 19.0 0.00 0.00 0.00 61 1010.5
20260507130033 55 132 12.0 18.0 0.00 0.00 0.00 61 1010.6
20260507124526 55 180 6.0 21.0 0.00 0.00 0.00 61 1010.6
20260507123022 56 198 9.0 19.0 0.00 0.00 0.00 61 1010.7
20260507121518 55 177 11.0 17.0 0.00 0.00 0.00 61 1010.8
20260507120014 55 165 12.0 17.0 0.00 0.00 0.00 60 1010.8
20260507114520 56 176 9.0 15.0 0.00 0.00 0.00 60 1010.8
20260507113006 55 132 10.0 18.0 0.00 0.00 0.00 60 1010.8
20260507111501 54 149 10.0 19.0 0.00 0.00 0.00 59 1010.9
20260507110110 54 146 9.0 16.0 0.00 0.00 0.00 55 1010.9
20260507104552 54 189 10.0 15.0 0.00 0.00 0.00 55 1010.9
20260507103054 54 145 8.0 15.0 0.00 0.00 0.00 36 1010.9
20260507101548 53 242 5.0 8.0 0.00 0.00 0.00 10 1010.9
20260507100040 52 173 6.0 11.0 0.00 0.00 0.00 38 1011.0
20260507094536 54 141 9.0 15.0 0.00 0.00 0.00 23 1010.9
20260507093030 53 168 6.0 10.0 0.00 0.00 0.00 22 1010.8
20260507091526 54 176 3.0 10.0 0.00 0.00 0.00 29 1010.8
20260507090034 53 145 6.0 9.0 0.00 0.00 0.00 22 1010.9
20260507084531 52 178 8.0 14.0 0.00 0.00 0.00 35 1010.9
20260507083013 53 160 6.0 14.0 0.00 0.00 0.00 56 1010.9
20260507081513 53 163 11.0 15.0 0.00 0.00 0.00 59 1010.9
20260507080005 54 137 8.0 13.0 0.00 0.00 0.00 55 1010.8
20260507074600 54 117 7.0 10.0 0.00 0.00 0.00 53 1010.7
20260507073059 53 150 5.0 11.0 0.00 0.00 0.00 50 1010.7
20260507071556 54 101 7.0 15.0 0.00 0.00 0.00 50 1010.6
20260507070058 54 112 5.0 9.0 0.00 0.00 0.00 39 1010.7
20260507064542 52 117 2.0 4.0 0.00 0.00 0.00 18 1010.8
20260507063037 51 90 1.0 3.0 0.00 0.00 0.00 9 1010.9
20260507061534 50 74 1.0 3.0 0.00 0.00 0.00 1 1010.9
20260507060029 48 69 1.0 4.0 0.00 0.00 0.00 1 1010.8
20260507054525 48 88 2.0 4.0 0.00 0.00 0.00 1 1010.8
20260507053021 47 114 1.0 3.0 0.00 0.00 0.00 1 1010.8
20260507051522 46 114 0.0 1.0 0.00 0.00 0.00 1 1010.8
20260507050012 47 114 2.0 4.0 0.00 0.00 0.00 1 1010.7
20260507044507 47 115 1.0 3.0 0.00 0.00 0.00 4 1010.7
20260507043003 47 118 2.0 4.0 0.00 0.00 0.00 2 1010.6
20260507041601 47 126 2.0 4.0 0.00 0.00 0.00 1 1010.7
20260507040056 47 110 3.0 5.0 0.00 0.00 0.00 1 1010.6
20260507034558 47 108 0.0 4.0 0.00 0.00 0.00 1 1010.7
20260507033047 47 125 0.0 3.0 0.00 0.00 0.00 1 1010.8
20260507031541 47 126 1.0 3.0 0.00 0.00 0.00 1 1010.8
20260507030039 47 127 0.0 3.0 0.00 0.00 0.00 1 1010.9
20260507024548 47 127 0.0 1.0 0.00 0.00 0.00 1 1010.7
20260507023028 47 128 0.0 1.0 0.00 0.00 0.00 1 1010.9
20260507021524 48 130 1.0 3.0 0.00 0.00 0.00 1 1010.9
20260507020020 48 159 0.0 0.0 0.00 0.00 0.00 1 1011.0
20260507014531 49 159 0.0 1.0 0.00 0.00 0.00 5 1011.0
20260507013011 49 159 0.0 0.0 0.00 0.00 0.00 6 1010.9